Location: Stilling
(56.0622°N, 9.9882°E)
Time: 23:41:23
(UTC+00:00)

Meteor 2-12 Rocket - Pass Details

Date: 13 July 2020
Orbit: 936 x 957 km, 82.5° (Epoch: 14 August)

Event Time Altitude Azimuth Distance (km) Brightness Sun altitude
Exits shadow 22:20:59 11° 191° (S) 2,628 6.2 -11.1°
Maximum altitude 22:27:00 88° 279° (W) 965 4.5 -11.3°
Drops below altitude 10° 22:33:13 10° 12° (NNE) 2,703 8.0 -11.5°
Sets 22:35:44 0° 13° (NNE) 3,653 8.8 -11.6°
